Location: Hilton Head Island
(32.2163°N, 80.7526°W)
Time: 02:29:17
(UTC-04:00)

Vanguard 1 - Pass Details

Date: 16 February 2026
Orbit: 653 x 3818 km, 34.2° (Epoch: 9 March)

Event Time Altitude Azimuth Distance (km) Brightness Sun altitude
Rises 16:18:30 0° 252° (WSW) 4,654 15.0 21.0°
Reaches altitude 10° 16:20:58 10° 252° (WSW) 3,971 15.1 20.6°
Maximum altitude 16:32:23 88° 164° (SSE) 2,559 12.5 18.5°
Drops below altitude 10° 16:53:14 10° 78° (ENE) 6,700 13.8 14.5°
Sets 16:58:57 0° 79° (ENE) 7,899 14.1 13.4°
